| time (UTC) | temp F | wind direction | speed MPH | gust MPH | rain 1hr in | rain 24hr in | rain mn in | humidity % | barometer mb |
| 20260507033011 | 61 | 304 | 9.0 | 13.0 | 0.00 | 0.00 | 0.00 | 88 | 1017.3 |
| 20260507032001 | 61 | 281 | 9.0 | 13.0 | 0.00 | 0.00 | 0.00 | 87 | 1017.3 |
| 20260507031002 | 61 | 293 | 9.0 | 14.0 | 0.00 | 0.00 | 0.00 | 87 | 1017.1 |
| 20260507025949 | 61 | 285 | 8.0 | 15.0 | 0.00 | 0.00 | 0.00 | 87 | 1017.1 |
| 20260507025008 | 61 | 283 | 9.0 | 15.0 | 0.00 | 0.00 | 0.00 | 86 | 1017.1 |
| 20260507022847 | 62 | 289 | 9.0 | 15.0 | 0.00 | 0.00 | 0.00 | 84 | 1016.8 |
| 20260507021849 | 62 | 271 | 8.0 | 12.0 | 0.00 | 0.00 | 0.00 | 83 | 1016.8 |
| 20260507020836 | 63 | 242 | 7.0 | 12.0 | 0.00 | 0.00 | 0.00 | 83 | 1016.6 |
| 20260507012432 | 63 | 342 | 9.0 | 15.0 | 0.00 | 0.00 | 0.00 | 82 | 1016.6 |
| 20260507011440 | 64 | 219 | 9.0 | 13.0 | 0.00 | 0.00 | 0.00 | 82 | 1016.7 |
| 20260507010434 | 64 | 269 | 9.0 | 13.0 | 0.00 | 0.00 | 0.00 | 82 | 1016.6 |
| 20260507005404 | 64 | 259 | 9.0 | 14.0 | 0.00 | 0.00 | 0.00 | 81 | 1016.5 |
| 20260507004409 | 64 | 232 | 9.0 | 14.0 | 0.00 | 0.00 | 0.00 | 81 | 1016.5 |
| 20260507002253 | 64 | 274 | 9.0 | 15.0 | 0.00 | 0.00 | 0.00 | 80 | 1016.7 |
| 20260507001254 | 64 | 293 | 9.0 | 15.0 | 0.00 | 0.00 | 0.00 | 79 | 1016.7 |
| 20260506234020 | 66 | 252 | 8.0 | 13.0 | 0.00 | 0.00 | 0.00 | 78 | 1016.6 |
| 20260506233030 | 66 | 274 | 8.0 | 13.0 | 0.00 | 0.00 | 0.00 | 78 | 1016.6 |
| 20260506232005 | 66 | 295 | 8.0 | 13.0 | 0.00 | 0.00 | 0.00 | 77 | 1016.6 |
| 20260506230957 | 67 | 304 | 8.0 | 12.0 | 0.00 | 0.00 | 0.00 | 76 | 1016.7 |
| 20260506225950 | 67 | 307 | 8.0 | 13.0 | 0.00 | 0.00 | 0.00 | 76 | 1016.8 |
| 20260506224936 | 67 | 257 | 8.0 | 13.0 | 0.00 | 0.00 | 0.00 | 75 | 1016.9 |
| 20260506221658 | 67 | 230 | 7.0 | 11.0 | 0.00 | 0.00 | 0.00 | 75 | 1017.4 |
| 20260506220702 | 67 | 247 | 7.0 | 11.0 | 0.00 | 0.00 | 0.00 | 76 | 1017.6 |
| 20260506215725 | 67 | 250 | 7.0 | 11.0 | 0.00 | 0.00 | 0.00 | 76 | 1017.6 |
| 20260506214659 | 67 | 253 | 7.0 | 11.0 | 0.00 | 0.00 | 0.00 | 75 | 1017.7 |
| 20260506213625 | 67 | 308 | 7.0 | 10.0 | 0.00 | 0.00 | 0.00 | 74 | 1017.9 |
| 20260506212612 | 68 | 224 | 6.0 | 11.0 | 0.00 | 0.00 | 0.00 | 74 | 1017.9 |
| 20260506211538 | 67 | 354 | 6.0 | 11.0 | 0.00 | 0.00 | 0.00 | 74 | 1018.0 |
| 20260506210547 | 67 | 356 | 6.0 | 11.0 | 0.00 | 0.00 | 0.00 | 75 | 1018.0 |
| 20260506205552 | 67 | 259 | 6.0 | 10.0 | 0.00 | 0.00 | 0.00 | 73 | 1018.1 |
| 20260506204559 | 67 | 245 | 6.0 | 10.0 | 0.00 | 0.00 | 0.00 | 74 | 1018.2 |
| 20260506203537 | 67 | 241 | 7.0 | 10.0 | 0.00 | 0.00 | 0.00 | 73 | 1018.2 |
| 20260506202534 | 67 | 299 | 6.0 | 10.0 | 0.00 | 0.00 | 0.00 | 74 | 1018.2 |
| 20260506201501 | 67 | 321 | 6.0 | 9.0 | 0.00 | 0.00 | 0.00 | 73 | 1018.4 |
| 20260506200441 | 67 | 238 | 6.0 | 11.0 | 0.00 | 0.00 | 0.00 | 73 | 1018.5 |
| 20260506195424 | 67 | 207 | 6.0 | 11.0 | 0.00 | 0.00 | 0.00 | 74 | 1018.5 |
| 20260506194359 | 68 | 227 | 6.0 | 10.0 | 0.00 | 0.00 | 0.00 | 73 | 1018.5 |
| 20260506193423 | 68 | 274 | 6.0 | 10.0 | 0.00 | 0.00 | 0.00 | 73 | 1018.7 |
| 20260506192412 | 68 | 318 | 6.0 | 9.0 | 0.00 | 0.00 | 0.00 | 72 | 1018.7 |
| 20260506191411 | 67 | 248 | 6.0 | 9.0 | 0.00 | 0.00 | 0.00 | 73 | 1018.9 |
| 20260506190435 | 67 | 219 | 6.0 | 10.0 | 0.00 | 0.00 | 0.00 | 72 | 1018.9 |
| 20260506185402 | 67 | 135 | 6.0 | 10.0 | 0.00 | 0.00 | 0.00 | 75 | 1018.9 |
| 20260506184422 | 67 | 9 | 6.0 | 9.0 | 0.00 | 0.00 | 0.00 | 75 | 1018.9 |
| 20260506182309 | 67 | 262 | 5.0 | 9.0 | 0.00 | 0.00 | 0.00 | 75 | 1019.0 |
| 20260506181334 | 66 | 298 | 5.0 | 8.0 | 0.00 | 0.00 | 0.00 | 75 | 1019.1 |
| 20260506180336 | 66 | 235 | 4.0 | 8.0 | 0.00 | 0.00 | 0.00 | 75 | 1019.1 |
| 20260506174149 | 65 | 218 | 4.0 | 7.0 | 0.00 | 0.00 | 0.00 | 76 | 1019.1 |
| 20260506173204 | 65 | 239 | 4.0 | 7.0 | 0.00 | 0.00 | 0.00 | 77 | 1019.0 |
| 20260506172210 | 64 | 293 | 4.0 | 7.0 | 0.00 | 0.00 | 0.00 | 77 | 1019.0 |
| 20260506171207 | 64 | 321 | 4.0 | 7.0 | 0.00 | 0.00 | 0.00 | 77 | 1018.9 |
| 20260506170206 | 64 | 259 | 4.0 | 7.0 | 0.00 | 0.00 | 0.00 | 76 | 1018.9 |
| 20260506165226 | 64 | 331 | 3.0 | 6.0 | 0.00 | 0.00 | 0.00 | 75 | 1018.8 |
| 20260506164242 | 64 | 30 | 3.0 | 5.0 | 0.00 | 0.00 | 0.00 | 77 | 1018.8 |
| 20260506162208 | 65 | 241 | 3.0 | 5.0 | 0.00 | 0.00 | 0.00 | 76 | 1018.8 |
| 20260506161134 | 66 | 258 | 1.0 | 4.0 | 0.00 | 0.00 | 0.00 | 75 | 1018.9 |
| 20260506160157 | 66 | 262 | 1.0 | 4.0 | 0.00 | 0.00 | 0.00 | 75 | 1018.8 |
| 20260506155210 | 66 | 352 | 1.0 | 3.0 | 0.00 | 0.00 | 0.00 | 76 | 1018.8 |
| 20260506154224 | 65 | 179 | 1.0 | 2.0 | 0.00 | 0.00 | 0.00 | 76 | 1018.8 |
| 20260506153236 | 64 | 100 | 0.0 | 1.0 | 0.00 | 0.00 | 0.00 | 77 | 1018.8 |
| 20260506152248 | 64 | 126 | 0.0 | 4.0 | 0.00 | 0.00 | 0.00 | 78 | 1018.7 |
| 20260506151241 | 63 | 239 | 0.0 | 4.0 | 0.00 | 0.00 | 0.00 | 80 | 1018.9 |
| 20260506150227 | 62 | 98 | 0.0 | 3.0 | 0.00 | 0.00 | 0.00 | 82 | 1018.9 |
| 20260506145227 | 61 | 67 | 1.0 | 4.0 | 0.00 | 0.00 | 0.00 | 83 | 1018.9 |
| 20260506144219 | 60 | 70 | 1.0 | 3.0 | 0.00 | 0.00 | 0.00 | 84 | 1018.8 |
| 20260506143205 | 59 | 92 | 0.0 | 2.0 | 0.00 | 0.00 | 0.00 | 85 | 1018.7 |
| 20260506142142 | 58 | 84 | 1.0 | 3.0 | 0.00 | 0.00 | 0.00 | 87 | 1018.7 |
| 20260506141144 | 58 | 80 | 1.0 | 3.0 | 0.00 | 0.00 | 0.00 | 88 | 1018.6 |
| 20260506140159 | 57 | 78 | 1.0 | 3.0 | 0.00 | 0.00 | 0.00 | 88 | 1018.5 |
| 20260506135152 | 56 | 70 | 0.0 | 2.0 | 0.00 | 0.00 | 0.00 | 88 | 1018.5 |
| 20260506133047 | 56 | 79 | 1.0 | 3.0 | 0.00 | 0.00 | 0.00 | 88 | 1018.3 |
| 20260506130916 | 56 | 72 | 1.0 | 2.0 | 0.00 | 0.00 | 0.00 | 88 | 1018.3 |
| 20260506125855 | 56 | 73 | 0.0 | 2.0 | 0.00 | 0.00 | 0.00 | 88 | 1018.0 |
| 20260506124825 | 56 | 84 | 0.0 | 0.0 | 0.00 | 0.00 | 0.00 | 87 | 1017.9 |
| 20260506123826 | 56 | 78 | 0.0 | 1.0 | 0.00 | 0.00 | 0.00 | 87 | 1018.0 |
| 20260506122801 | 56 | 79 | 0.0 | 2.0 | 0.00 | 0.00 | 0.00 | 87 | 1017.7 |
| 20260506121729 | 56 | 75 | 0.0 | 2.0 | 0.00 | 0.00 | 0.00 | 87 | 1017.7 |
| 20260506120711 | 56 | 86 | 0.0 | 1.0 | 0.00 | 0.00 | 0.00 | 86 | 1017.8 |
| 20260506115723 | 56 | 84 | 0.0 | 1.0 | 0.00 | 0.00 | 0.00 | 86 | 1017.7 |
| 20260506114737 | 57 | 65 | 0.0 | 0.0 | 0.00 | 0.00 | 0.00 | 86 | 1017.6 |
| 20260506113707 | 57 | 85 | 0.0 | 2.0 | 0.00 | 0.00 | 0.00 | 86 | 1017.6 |
| 20260506111555 | 57 | 108 | 0.0 | 2.0 | 0.00 | 0.00 | 0.00 | 88 | 1017.5 |
| 20260506110555 | 56 | 104 | 0.0 | 0.0 | 0.00 | 0.00 | 0.00 | 88 | 1017.5 |
| 20260506105543 | 57 | 104 | 0.0 | 0.0 | 0.00 | 0.00 | 0.00 | 87 | 1017.6 |
| 20260506104513 | 57 | 104 | 0.0 | 0.0 | 0.00 | 0.00 | 0.00 | 87 | 1017.6 |
| 20260506100048 | 58 | 104 | 0.0 | 0.0 | 0.00 | 0.00 | 0.00 | 88 | 1017.5 |
| 20260506095043 | 58 | 104 | 0.0 | 0.0 | 0.00 | 0.00 | 0.00 | 88 | 1017.6 |
| 20260506094106 | 58 | 104 | 0.0 | 0.0 | 0.00 | 0.00 | 0.00 | 88 | 1017.6 |
| 20260506093058 | 58 | 128 | 0.0 | 0.0 | 0.00 | 0.00 | 0.00 | 88 | 1017.6 |
| 20260506090953 | 59 | 95 | 0.0 | 0.0 | 0.00 | 0.00 | 0.00 | 88 | 1017.7 |
| 20260506084831 | 59 | 108 | 0.0 | 0.0 | 0.00 | 0.00 | 0.00 | 88 | 1017.9 |
| 20260506083757 | 59 | 101 | 0.0 | 3.0 | 0.00 | 0.00 | 0.00 | 87 | 1018.0 |
| 20260506082733 | 59 | 141 | 0.0 | 3.0 | 0.00 | 0.00 | 0.00 | 88 | 1018.0 |
| 20260506081701 | 59 | 105 | 1.0 | 5.0 | 0.00 | 0.00 | 0.00 | 87 | 1018.0 |
| 20260506080718 | 59 | 150 | 1.0 | 5.0 | 0.00 | 0.00 | 0.00 | 87 | 1018.0 |
| 20260506072603 | 59 | 153 | 1.0 | 3.0 | 0.00 | 0.00 | 0.00 | 86 | 1018.0 |
| 20260506070423 | 59 | 139 | 1.0 | 6.0 | 0.00 | 0.00 | 0.00 | 86 | 1017.9 |
| 20260506062325 | 60 | 75 | 1.0 | 4.0 | 0.00 | 0.00 | 0.00 | 87 | 1017.5 |
| 20260506061255 | 60 | 117 | 1.0 | 3.0 | 0.00 | 0.00 | 0.00 | 87 | 1017.4 |
| 20260506060228 | 59 | 141 | 0.0 | 3.0 | 0.00 | 0.00 | 0.00 | 86 | 1017.5 |
| 20260506051228 | 60 | 229 | 1.0 | 4.0 | 0.00 | 0.00 | 0.00 | 85 | 1017.1 |
| 20260506050221 | 60 | 223 | 1.0 | 4.0 | 0.00 | 0.00 | 0.00 | 85 | 1017.0 |
| 20260506044214 | 60 | 131 | 0.0 | 3.0 | 0.00 | 0.00 | 0.00 | 84 | 1016.6 |
| 20260506043213 | 59 | 259 | 0.0 | 0.0 | 0.00 | 0.00 | 0.00 | 84 | 1016.5 |
| 20260506042202 | 59 | 259 | 0.0 | 0.0 | 0.00 | 0.00 | 0.00 | 84 | 1016.5 |
| 20260506040018 | 60 | 259 | 0.0 | 0.0 | 0.00 | 0.00 | 0.00 | 83 | 1016.3 |
| 20260506034945 | 60 | 259 | 0.0 | 0.0 | 0.00 | 0.00 | 0.00 | 82 | 1016.1 |